Retour au catalogue

ARIANE 5 R/B

ActifGTO
NORAD 43176·ROCKET BODY·🇫🇷 France

Lancé Jan 25, 2018 depuis Guiana Space Centre

Loading…

TLE

PériméSource: Space-Track

Époque: Sep 14, 2026, 02:59 UTC

1 43176U 18012C   26257.12475108  .00003709  00000-0  16584-2 0  9998
2 43176  21.6331 300.1964 7467089 230.8031  35.4984  2.04825997 61141

Suivez ARIANE 5 R/B en temps réel avec AllMySat

Download on the App Store